Back to catalog

THOR BURNER 2 R/B

AlivePO
NORAD 2877·ROCKET BODY·🇺🇸 United States

Launched Jun 29, 1967 from Vandenberg Space Force Base

Loading…

Next Passes (next 24 hours)

TLE

FreshSource: Space-Track

Epoch: Sep 13, 2026, 13:38 UTC

1  2877U 67065C   26256.56864058  .00000000  00000-0 -71583-3 0  9999
2  2877  89.9788 313.5300 0063244  11.6203 348.6078  8.36607877808376

Track THOR BURNER 2 R/B in real time with AllMySat

Download on the App Store